Voltar ao catálogo

STARLINK-32773

AtivoComunicaçõesVLEO
NORAD 62571·PAYLOAD·🇺🇸 United States

Lançado Jan 10, 2025 de Cape Canaveral Space Force Station

Loading…

Próximas Passagens (próximas 24 horas)

TLE

AtualizadoSource: CelesTrak SupGP

Época: Sep 15, 2026, 02:59 UTC

1 62571C 25006T   26258.12479167  .00023638  00000+0  85599-3 0  2582
2 62571  43.0024 302.5956 0001190 266.9659 179.1203 15.27573653    18

Acompanhe STARLINK-32773 em tempo real com AllMySat

Download on the App Store